Hourly Data Report for September 17, 2007

PETERBOROUGH AWOS
ONTARIO

44°14'00.000" N
78°22'00.000" W
191.40 m
6166420

Download Data

Hourly Data (September 2007)
Hourly Data Report for September 17, 2007
TIME
LST
Temp Definition
°C
Dew Point Definition
°C
Rel Hum Definition
%
Precip. Amount Definition
mm

Wind Dir Definition
10's deg

Wind Spd Definition
km/h
Visibility Definition
km
Stn Press Definition
kPa
Hmdx Definition


Wind Chill Definition


Weather Definition


00:00 2.4 2.2 99     0 4.8 100.39      
01:00 2.7 2.2 97   16 4 15.0 100.44      
02:00 2.4 2.3 99     0 15.0 100.43      
03:00 1.2 0.8 97     0 15.0 100.46      
04:00 0.3 0.3 100     0 15.0 100.47      
05:00 0.6 0.0 96     0 15.0 100.51      
06:00 0.2 -0.1 98     0 15.0 100.58      
07:00 3.0 2.6 97     0 15.0 100.61      
08:00 8.7 6.4 85     0 15.0 100.66      
09:00 14.2 8.9 70     0 15.0 100.69      
10:00 17.2 7.9 54   16 9 15.0 100.68      
11:00 18.3 7.1 48   17 15 15.0 100.65      
12:00 18.6 5.1 41   18 15 15.0 100.65      
13:00 18.8 4.7 39   18 15 15.0 100.59      
14:00 19.1 4.6 38   16 19 15.0 100.55      
15:00 18.5 4.5 40   14 17 15.0 100.50      
16:00 17.9 4.7 42   18 11 15.0 100.50      
17:00 17.4 5.4 45   14 11 15.0 100.49      
18:00 14.2 7.0 62   16 7 15.0 100.46      
19:00 11.0 7.2 77     0 15.0 100.46      
20:00 6.5 5.7 95     0 15.0 100.46      
21:00 5.9 5.6 98     0 15.0 100.49      
22:00 4.8 4.4 97   11 6 6.4 100.47      
23:00 4.0 3.5 97   25 4 15.0 100.46      

Notes on Data Quality.

Legend

  • E = Estimated
  • M = Missing
  • NA = Not Available*
  • [empty] = Indicates an unobserved value
Date modified: